Flag for Germany Weather past 2 weeks in Warstein, North Rhine-Westphalia, Germany

Now
55 °F

Scattered clouds.


Feels Like: 52 °F
Forecast: 48 / 60 °F
Wind: 12 mph from South

Location: Paderborn / Lippstadt

Current Time: Aug 22, 2014 at 9:05:16 AM

Latest Report: Aug 22, 2014 at 8:20 AM


Visibility: N/A

Pressure: 29.92 "Hg

Humidity: 63%

Dew point: 43 °F

Location of WarsteinLocation

Historic Weather in Warstein — Graph

°F

Warstein temperature yesterday

Maximum temperature yesterday: 61 °F (at 1:50 PM)
Minimum temperature yesterday: 46 °F (at 4:50 AM)
Average temperature yesterday: 54 °F

Past Weeks' High & Low Weather Summary

 TemperatureHumidityPressure
High77 °F (Aug 8, 2:50 PM)100% (Aug 7, 7:50 AM)30.07 "Hg (Aug 7, 7:50 AM)
Low46 °F (Aug 19, 11:50 PM)38% (Aug 11, 5:20 PM)29.62 "Hg (Aug 10, 8:20 PM)
Average60 °F71%29.87 "Hg
* Reported Aug 7 7:20 AM — Aug 22 7:50 AM, Warstein, Weather by CustomWeather, © 2014

Note: Actual official high and low records may vary slightly from our data, if they occured in-between our weather recording intervals... More about our weather records

Advertising

Warstein weather history for previous 24 hours

 ConditionsComfort  
Time TempWeatherWind HumidityBarometerVisibility
7:50 AM
Aug 22
54 °FScattered clouds.9 mph67%29.92 "HgN/A
7:20 AM54 °FPassing clouds.9 mph67%29.92 "HgN/A
6:50 AM52 °FPassing clouds.8 mph72%29.92 "HgN/A
6:20 AM52 °FClear.9 mph72%29.92 "Hg10 mi
5:50 AM50 °FClear.7 mph76%29.95 "Hg10 mi
5:20 AM52 °FClear.7 mph72%29.95 "Hg10 mi
4:20 AM52 °FClear.8 mph72%29.95 "Hg10 mi
3:50 AM55 °FClear.9 mph63%29.95 "Hg10 mi
11:50 PM
Aug 21
54 °FClear.12 mph67%29.98 "Hg10 mi
11:20 PM54 °FClear.13 mph67%29.98 "Hg10 mi
10:50 PM54 °FClear.10 mph67%29.98 "Hg10 mi
10:20 PM54 °FClear.9 mph67%29.98 "Hg10 mi
9:50 PM55 °FClear.7 mph63%29.98 "Hg10 mi
9:20 PM55 °FSunny.7 mph67%29.98 "Hg10 mi
8:50 PM55 °FSunny.7 mph67%29.98 "Hg10 mi
8:20 PM57 °FSunny.6 mph63%29.98 "Hg10 mi
7:50 PM57 °FSunny.6 mph63%29.98 "Hg10 mi
7:20 PM59 °FPassing clouds.5 mph55%29.98 "HgN/A
6:50 PM57 °FSunny.5 mph63%29.98 "Hg10 mi
6:20 PM59 °FPassing clouds.7 mph55%30.01 "HgN/A
5:50 PM59 °FSunny.9 mph51%30.01 "Hg10 mi
5:20 PM59 °FPassing clouds.7 mph55%30.01 "HgN/A
4:50 PM59 °FPassing clouds.9 mph51%30.01 "HgN/A
4:20 PM59 °FScattered clouds.8 mph55%30.01 "HgN/A
3:50 PM59 °FScattered clouds.8 mph51%30.01 "HgN/A
3:20 PM61 °FScattered clouds.9 mph45%30.01 "HgN/A
2:50 PM59 °FScattered clouds.10 mph55%30.04 "HgN/A
2:20 PM61 °FScattered clouds.10 mph55%30.04 "HgN/A
1:50 PM61 °FScattered clouds.7 mph52%30.04 "HgN/A
1:20 PM59 °FScattered clouds.13 mph59%30.04 "HgN/A
12:50 PM57 °FScattered clouds.10 mph59%30.04 "HgN/A
12:20 PM57 °FScattered clouds.10 mph59%30.04 "HgN/A
11:50 AM55 °FScattered clouds.10 mph63%30.04 "HgN/A
11:20 AM55 °FScattered clouds.9 mph63%30.04 "HgN/A
10:50 AM55 °FScattered clouds.8 mph67%30.04 "HgN/A
10:20 AM54 °FPassing clouds.7 mph77%30.04 "HgN/A
9:50 AM54 °FPassing clouds.8 mph77%30.04 "HgN/A
9:20 AM52 °FSunny.9 mph88%30.04 "Hg10 mi
Weather by CustomWeather, © 2014

See weather overviewHow to use our weather pages